Weatherdata for SK6EI
Location: Mountain Billingen, JO68VK in Skövde

Date & Time Temperature Wind (no data) Rain Pressure
Direction Average Gust
16/01-2019 23:58 CET 2.6 °C - 0 m/s 0 m/s 0.0 mm 983 hPa, steady
17/01-2019 00:58 CET -0.5 °C - 0 m/s 0 m/s 0.3 mm 983 hPa, rising slowly
01:58 CET -2.2 °C - 0 m/s 0 m/s 0.0 mm 983 hPa, rising slowly
02:58 CET -3.3 °C - 0 m/s 0 m/s 0.0 mm 984 hPa, rising slowly
03:58 CET -4.2 °C - 0 m/s 0 m/s 0.0 mm 984 hPa, rising slowly
04:58 CET -4.9 °C - 0 m/s 0 m/s 0.0 mm 985 hPa, rising
05:18 CET -5.2 °C - 0 m/s 0 m/s 0.0 mm 985 hPa, rising slowly


24 hours ending 2358 CET on 16 Jan 2019 Date & time
Daytime max temp 3.9 °C 16/01-20191838 CET
Night min temp -7.0 °C 16/01-20190528 CET
Total rainfall 5.1 mm -
Average wind speed 0 m/s -
Highest gust speed 0 m/s 16/01-20190008 CET
 
From 0000 CET on 17 Jan to 0518 CET on 17 Jan 2019 Date & time
Daytime max temp
Night min temp -5.2 °C 17/01-20190518 CET
Total rainfall 0.3 mm -
Average wind speed 0 m/s -
Highest gust speed 0 m/s 17/01-20190008 CET


Choose graph for latest | Hour | 24 Hours | 7 Days | 28 Days | 31 Days table |

24 hours ending Temperature Rainfall
  day max     night min  
 2018/12/17 23:56 CET   -1.5 °C  -3.1 °C  0.0 mm
 2018/12/18 23:57 CET   -2.1 °C  -2.9 °C  0.0 mm
 2018/12/19 23:57 CET   0.6 °C  -1.7 °C  0.0 mm
 2018/12/20 23:53 CET   -0.3 °C  -1.2 °C  0.0 mm
 2018/12/21 23:53 CET   -2.7 °C  -3.6 °C  0.0 mm
 2018/12/22 23:53 CET   -4.2 °C  -4.7 °C  0.0 mm
 2018/12/23 23:53 CET   -4.3 °C  -8.1 °C  0.0 mm
 2018/12/24 23:53 CET   -2.5 °C  -10.5 °C  0.0 mm
 2018/12/25 23:53 CET   1.9 °C  -0.2 °C  7.2 mm
 2018/12/26 23:53 CET   3.0 °C  -0.8 °C  0.0 mm
 2018/12/27 23:53 CET   4.7 °C  0.5 °C  2.1 mm
 2018/12/28 23:53 CET   0.1 °C  -1.1 °C  0.0 mm
 2018/12/29 23:53 CET   2.8 °C  -0.1 °C  0.9 mm
 2018/12/30 23:53 CET   0.0 °C  -2.9 °C  0.0 mm
 2018/12/31 23:54 CET   5.3 °C  -3.5 °C  0.6 mm
 2019/01/01 23:54 CET   4.8 °C  1.4 °C  0.0 mm
 2019/01/02 23:54 CET   -0.8 °C  -2.4 °C  0.9 mm
 2019/01/03 23:54 CET   0.2 °C  -2.7 °C  0.0 mm
 2019/01/04 23:54 CET   4.5 °C  -2.0 °C  0.3 mm
 2019/01/05 23:54 CET   1.7 °C  0.7 °C  0.0 mm
 2019/01/06 23:55 CET   1.4 °C  -0.8 °C  0.0 mm
 2019/01/07 23:56 CET   1.0 °C  -0.9 °C  1.8 mm
 2019/01/08 23:56 CET   1.0 °C  -2.1 °C  0.9 mm
 2019/01/09 23:56 CET   -2.1 °C  -6.2 °C  0.0 mm
 2019/01/10 23:56 CET   0.3 °C  -8.6 °C  0.6 mm
 2019/01/11 23:56 CET   2.0 °C  -2.2 °C  0.3 mm
 2019/01/12 23:56 CET   -0.9 °C  -5.3 °C  0.0 mm
 2019/01/13 23:56 CET   1.4 °C  -4.2 °C  1.5 mm
 2019/01/14 23:56 CET   -0.7 °C  -5.3 °C  0.3 mm
 2019/01/15 23:58 CET   -1.9 °C  -6.4 °C  0.0 mm
 2019/01/16 23:58 CET   3.9 °C  -7.0 °C  5.1 mm